TimePDT,TemperatureF,Dew PointF,Humidity,Sea Level PressureIn,VisibilityMPH,Wind Direction,Wind SpeedMPH,Gust SpeedMPH,PrecipitationIn,Events,Conditions,WindDirDegrees,DateUTC
12:54 AM,51.1,51.1,100,29.99,2.5,ENE,5.8,-,N/A,,Clear,70,2012-11-03 07:54:00
1:06 AM,50.0,50.0,100,29.98,3.0,ENE,4.6,-,N/A,,Clear,60,2012-11-03 08:06:00
1:54 AM,51.1,51.1,100,29.99,4.0,North,3.5,-,N/A,,Clear,10,2012-11-03 08:54:00
2:54 AM,52.0,52.0,100,29.99,4.0,NNE,4.6,-,N/A,,Clear,20,2012-11-03 09:54:00
3:54 AM,51.1,51.1,100,30.00,4.0,NNE,4.6,-,N/A,,Clear,20,2012-11-03 10:54:00
4:54 AM,51.1,51.1,100,30.00,4.0,NNE,4.6,-,N/A,,Clear,20,2012-11-03 11:54:00
5:54 AM,51.1,50.0,96,30.01,4.0,NNE,4.6,-,N/A,,Clear,20,2012-11-03 12:54:00
6:54 AM,50.0,47.7,92,30.02,4.0,NNE,5.8,-,N/A,,Clear,30,2012-11-03 13:54:00
7:54 AM,50.0,50.0,100,30.03,4.0,NNE,4.6,-,N/A,,Clear,20,2012-11-03 14:54:00
8:15 AM,51.8,48.2,88,30.04,4.0,NNE,3.5,-,N/A,,Mostly Cloudy,20,2012-11-03 15:15:00
8:54 AM,55.0,52.0,89,30.05,4.0,NNE,3.5,-,N/A,,Scattered Clouds,20,2012-11-03 15:54:00
9:54 AM,61.0,53.4,76,30.06,5.0,NNW,4.6,-,N/A,,Haze,340,2012-11-03 16:54:00
10:54 AM,64.9,59.0,81,30.06,6.0,SSW,4.6,-,N/A,,Haze,210,2012-11-03 17:54:00
11:54 AM,66.0,60.1,81,30.06,7.0,SSW,5.8,-,N/A,,Clear,210,2012-11-03 18:54:00
12:54 PM,66.9,57.0,70,30.03,7.0,SSW,9.2,-,N/A,,Partly Cloudy,200,2012-11-03 19:54:00
1:54 PM,66.9,57.0,70,30.01,7.0,SW,6.9,-,N/A,,Clear,230,2012-11-03 20:54:00
2:54 PM,66.9,57.0,70,30.01,7.0,SW,8.1,-,N/A,,Clear,230,2012-11-03 21:54:00
3:54 PM,66.0,57.9,75,30.01,7.0,SW,6.9,-,N/A,,Clear,230,2012-11-03 22:54:00
4:54 PM,64.9,60.1,84,30.01,7.0,Variable,6.9,-,N/A,,Clear,0,2012-11-03 23:54:00
5:54 PM,62.1,60.1,93,30.02,7.0,West,3.5,-,N/A,,Clear,280,2012-11-04 00:54:00
6:54 PM,61.0,60.1,97,30.02,6.0,Calm,Calm,-,N/A,,Clear,0,2012-11-04 01:54:00
7:54 PM,61.0,60.1,97,30.03,6.0,NNW,5.8,-,N/A,,Clear,340,2012-11-04 02:54:00
8:54 PM,57.9,57.9,100,30.04,6.0,NNE,3.5,-,N/A,,Clear,20,2012-11-04 03:54:00
9:54 PM,57.0,57.0,100,30.04,6.0,North,3.5,-,N/A,,Clear,360,2012-11-04 04:54:00
10:54 PM,55.9,55.0,97,30.04,6.0,North,4.6,-,N/A,,Clear,350,2012-11-04 05:54:00
11:54 PM,55.9,55.0,97,30.03,5.0,North,5.8,-,N/A,,Clear,360,2012-11-04 06:54:00